Arviat Airport
CYEK : now visible

Airfield :











YOU CAN JOIN US ON...

 
LOGIN :

Register | Disclaimer

   EN    FR    IT 

 









Legend :    VFR   Marginal VFR   IFR   Intensive IFR   Very Intensive IFR
Visi :
Ceiling :
>= 8 km
>= 3000ft
5 to 8 km
1000 to 3000 ft
1500m to 5 km
500 to 1000 ft
800 to 1500m
200 to 500 ft
< 800m
< 200 ft
Symbols :   Thunderstorms  Fog  Heavy snow  Heavy precipitations  Wind > 20 kt






- Airport Elevation : 32 ft
- IATA code : YEK


CYEK - Arviat

CURRENT METAR :
  • 281200Z 32004KT 10SM SCT006 BKN030 02/02 A3003 RMK SC3SC2 SLP173

EXPIRED METARs :
  • 281100Z AUTO 33003KT 9SM CLR 02/01 A3002 RMK SLP167
  • 281000Z AUTO 34006KT 9SM FEW230 02/02 A3001 RMK SLP166

TAF TAF CYEK
Valid from the 28 at 12:00 until the 29 at 00:00 UTC


281139Z 2812/2824 34005KT P6SM FEW025
TEMPO 2812/2820 BKN020
BECMG 2818/2820 12010KT
FM282000 12010KT P6SM SCT004
TEMPO 2820/2824 2SM BR OVC004 RMK FCST BASED ON AUTO OBS. NXT FCST BY 281800Z
CZEG FIR / North America



MET'MAP, your aeronautical weather chart ! - Copyright ORBIFLY December 2007 - Disclaimer

ORBIFLY MET'MAP TEAM :

Programming & Development : Alexandra Zaïnal
Concept & original design : Baudouin d'Aumeries
Assistance for programming : Marc-Olivier Méhu
Technical & hardware support : Manuel Goepfert

Contact : metmap@orbifly.com




SOURCES & CREDITS :

   NOAA       Earth
Advisory